User: anonymous   Login
Location: Home
(42.5358°N, 72.7383°W)
Time: 01:06:29
(UTC-05:00)
Language:

EO-79 - Orbit

View from above orbital plane
View from above orbital plane
View from above satellite
View from above satellite

Ground track
Ground track

The orbit data is extracted from the following two-line orbital elements,

1 40025U 14033R   22026.36942259  .00001066  00000-0  11699-3 0  9996
2 40025  97.9503 322.8497 0012648 158.7342 201.4403 14.89794527412605
Epoch (UTC): 26 January 2022 08:51:58
Eccentricity: 0.0012648
inclination: 97.9503°
perigee height: 590 km
apogee height: 607 km
right ascension of ascending node: 322.8497°
argument of perigee: 158.7342°
revolutions per day: 14.89794527
mean anomaly at epoch: 201.4403°
orbit number at epoch: 41260

The dashed part of the orbit path shows where the satellite is in the earth's shadow,  

DLR